Location: Hawks Ness
(60.2333°N, 1.1667°W)
Time: 06:10:35
(UTC+00:00)

Cosmos 2360 Rocket - Pass Details

Date: 22 October 2019
Orbit: 832 x 846 km, 71.0° (Epoch: 13 November)

Event Time Altitude Azimuth Distance (km) Brightness Sun altitude
Exits shadow 02:56:28 71° 80° (E) 894 2.3 -29.9°
Drops below altitude 10° 03:01:40 10° 41° (NE) 2,475 5.5 -29.3°
Sets 03:04:07 0° 40° (NE) 3,415 6.4 -29.1°
